Simultaneous Nadir Overpasses (SNOs) Predictions

Prediction of SNOs between AQUA and METOP-A Satellite Orbit:

Table of predicted SNOs for the next 14.0 days since TLE Epoch: 3/8/2019
Index Date (AQUA) Time (AQUA) Lat,Lon (AQUA) SZA (AQUA ) Date (METOP-A) Time (METOP-A) Lat,Lon (METOP-A) SZA (METOP-A ) Distance(km) Time Diff (sec)
1 03/09/2019 23:15:01 74.95,-177.06 79.45 03/09/2019 23:14:07 74.93,-177.03 79.45 2.46 54
2 03/10/2019 00:04:28 -74.98, -9.50 100.53 03/10/2019 00:04:47 -74.99, -9.52 100.52 1.32 19
3 03/10/2019 00:54:09 75.69, 156.16 80.27 03/10/2019 00:55:13 75.66, 159.79 80.05 99.92 64
4 03/12/2019 18:49:18 74.96,-110.65 78.35 03/12/2019 18:48:21 74.93,-110.62 78.33 3.48 57
5 03/12/2019 19:38:45 -74.99, 56.91 101.64 03/12/2019 19:39:01 -74.99, 56.89 101.63 1.05 16
6 03/12/2019 20:28:23 75.55,-137.00 78.99 03/12/2019 20:29:29 75.57,-134.09 78.86 80.59 66
7 03/15/2019 14:23:34 74.92, -44.13 77.19 03/15/2019 14:22:35 74.92, -44.22 77.21 2.64 59
8 03/15/2019 15:13:02 -75.00, 123.31 102.74 03/15/2019 15:13:15 -75.00, 123.31 102.74 0.41 13
9 03/15/2019 16:02:38 75.47, -70.33 77.78 03/15/2019 16:03:45 75.47, -67.98 77.66 65.45 67
10 03/18/2019 09:57:50 74.95, 22.25 76.10 03/18/2019 09:56:47 74.97, 22.31 76.13 3.11 63
11 03/18/2019 10:47:18 -75.02,-170.31 103.84 03/18/2019 10:47:28 -75.00,-170.28 103.86 2.94 10
12 03/18/2019 11:36:51 75.34, -3.54 76.51 03/18/2019 11:38:00 75.37, -1.87 76.45 46.97 69
13 03/21/2019 05:32:07 74.98, 88.60 75.01 03/21/2019 05:31:01 74.96, 88.70 75.01 3.26 66
14 03/21/2019 06:21:34 -75.00,-103.83 104.98 03/21/2019 06:21:42 -75.00,-103.88 104.98 1.69 8




NCC Satellite Simultaneous Nadir Overpasses (SNOs) Prediction Service
